Location: Rounton
(54.4000°N, 1.3500°W)
Time: 15:10:54
(UTC+00:00)

Transit 2A Rocket - Pass Details

Date: 08 December 2021
Orbit: 584 x 918 km, 66.7° (Epoch: 21 January)

Event Time Altitude Azimuth Distance (km) Brightness Sun altitude
Rises 13:50:07 0° 316° (NW) 3,565 8.2 9.1°
Reaches altitude 10° 13:52:44 10° 320° (NW) 2,622 7.6 8.9°
Maximum altitude 13:58:49 59° 40° (NE) 1,040 5.6 8.5°
Drops below altitude 10° 14:04:39 10° 120° (ESE) 2,516 7.7 8.1°
Sets 14:07:06 0° 124° (SE) 3,411 8.4 8.0°
